Location: Dötzum
(52.0808°N, 9.8063°E)
Time: 06:31:00
(UTC+00:00)

SL-14 R/B - Pass Details

Date: 27 May 2022
Orbit: 517 x 551 km, 82.4° (Epoch: 26 June)

Event Time Altitude Azimuth Distance (km) Brightness Sun altitude
Exits shadow 00:53:59 19° 236° (SW) 1,303 4.7 -13.7°
Maximum altitude 00:56:09 33° 289° (WNW) 906 4.4 -13.6°
Drops below altitude 10° 00:59:41 10° 354° (N) 1,769 6.9 -13.4°
Sets 01:01:59 0° 5° (N) 2,659 8.3 -13.2°
